SL-12 R/B(AUX MOTOR), 32281

Orbit data source: Space-Track

SL-12 R/B(AUX MOTOR), 32281 is space debris in HEO originally from a launch on Fri, 26 Oct 2007 UTC launched from the Tyuratam Missile And Space Complex (TTMTR). Debris objects in space refer to the collection of defunct objects orbiting the Earth. Examples of debris include non-operational satellites, rocket bodies, and fragments generated from explosions, collisions, or faulty payload assembly.

Loading next visibility...
Identifier
32281, 2007-052G
Orbit
HEO
Country
Flag of CISCIS
Related business
Manufacturer
RKKE
Mission
Spacecraft
Bus & Motor
SOZ, Unknown motor
Mass
56 kg wet, 56 kg dry
Launch date (UTC)
2007-10-26 (18 years ago)
Launch vehicle
Unknown
Launch site
Tyuratam Missile And Space Complex (TTMTR)
Object type
Payload
Rocket body
Debris
Shape & HBR
Cyl, 0.6 m
Radar Cross Section
0.660 m², Medium (>0.1 m² and < 1m²)

Expand to show TLE details & history
Last TLE update: 3 days ago

TLE from 3 days ago
0 SL-12 R/B(AUX MOTOR)
1 32281U 07052G   25303.46789089  .00000025  00000-0  56099-3 0  9993
2 32281  65.3223  21.1944 5678624 213.5168  92.3551  4.23717686278189
Epoch: 2025-10-30T11:13Z
TLE epoch observation values (Epoch: 2025-10-30T11:13:45.772Z)
Latitude
-0.00008°
Longitude
173.73927°
Altitude
14,396.238 km
Speed
3.697 km/s
True Right ascension
01h 24m 49s
True Declination
0° 00' 00"
Sunlit
Object was in daylight at epoch
Visualization orbit readout
Latitude
Unknown
Longitude
Unknown
Altitude
Unknown
Speed
Unknown
Apparent Right ascension
Unknown
Apparent Declination
Unknown
Sunlit
N/A
Visualization observer readout
Local Sidereal Time
23:06:11
Azimuth
Unknown
Elevation
Unknown
Doppler factor
Unknown
Orbital elements
Apogee altitude
18,912.565 km
Perigee altitude
592.541 km
Semi-major axis
16,130.69 km
Eccentricity
0.56786
Inclination
65.3223°
RAAN
21.1944°
Arg. of periapsis
213.5168°
True anomaly
146.54013°
Mean anomaly
92.3551°
Eccentric anomaly
120.41394°
Mean motion
1.05941 °/min
Orbital period
339.81 mins
BSTAR
0.00056099
Loading maneuver chart data...
Computing Atmospheric mass density...
Loading historical data...
Loading historical data...
Loading historical data...
Loading historical data...
Loading historical data...
Loading historical data...
Loading historical data...

Documentation

Showing up to 5 results
|